This demonstration page uses our WeatherBlox Daily Observations layout. Learn more.

Left ArrowRight Arrow

Hourly Observations for March 17, 2019

Temp ( °F °C ) Dew Point ( °F °C ) Humidity (%) Winds ( mph kmh ) Pressure ( in mb ) Visibility ( mi km ) Precip ( " mm )
12:52 am 00:52 Mostly Cloudy 34 1.1 27 -2.8 76 76 NNW 13 20 30.37 1029 10 16 0.00 0.00
1:52 am 01:52 Cloudy 33 0.6 27 -2.8 78 78 NW 12 19 30.37 1029 10 16 0.00 0.00
2:24 am 02:24 Partly Cloudy 31 -0.6 25 -3.9 79 79 NW 10 17 30.42 1030 10 16 0.00 0.00
2:52 am 02:52 Mostly Clear 30 -1.1 25 -3.9 82 82 NNW 7 11 30.37 1029 10 16 0.00 0.00
3:52 am 03:52 Mostly Clear 30 -1.1 25 -3.9 82 82 W 6 9 30.36 1028 10 16 0.00 0.00
4:40 am 04:40 Mostly Cloudy 29 -1.7 25 -3.9 85 85 WNW 3 6 30.40 1029 10 16 0.00 0.00
4:52 am 04:52 Mostly Cloudy 29 -1.7 25 -3.9 85 85 NW 6 9 30.36 1028 10 16 0.00 0.00
5:15 am 05:15 Partly Cloudy 28 -2.2 24 -4.4 85 85 NNW 7 11 30.40 1030 10 16 0.00 0.00
5:52 am 05:52 Clear 27 -2.8 24 -4.4 89 89 NNW 5 7 30.37 1028 10 16 0.00 0.00
6:52 am 06:52 Clear 28 -2.2 24 -4.4 85 85 WSW 3 6 30.38 1029 10 16 0.00 0.00
7:52 am 07:52 Partly Cloudy 27 -2.8 23 -5 85 85 Calm 30.38 1029 8 13 0.00 0.00
8:52 am 08:52 Mostly Cloudy 30 -1.1 26 -3.3 85 85 Calm 30.39 1029 9 14 0.00 0.00
9:52 am 09:52 Partly Cloudy 35 1.7 28 -2.2 76 76 VRB 3 6 30.41 1030 10 16 0.00 0.00
10:52 am 10:52 Partly Cloudy 37 2.8 28 -2.2 70 70 NE 5 7 30.41 1030 10 16 0.00 0.00
11:52 am 11:52 Partly Cloudy 38 3.3 29 -1.7 70 70 SE 3 6 30.40 1029 10 16 0.00 0.00
12:52 pm 12:52 Mostly Cloudy 42 5.6 29 -1.7 60 60 NNE 6 9 30.39 1029 10 16 0.00 0.00
1:52 pm 13:52 Mostly Cloudy 45 7.2 29 -1.7 54 54 N 7 11 30.36 1028 10 16 0.00 0.00
2:52 pm 14:52 Mostly Cloudy 44 6.7 28 -2.2 53 53 NNE 8 13 30.35 1028 10 16 0.00 0.00
3:52 pm 15:52 Mostly Cloudy 47 8.3 26 -3.3 44 44 VRB 3 6 30.33 1027 10 16 0.00 0.00
4:52 pm 16:52 Mostly Cloudy 48 8.9 27 -2.8 44 44 N 6 9 30.33 1027 10 16 0.00 0.00
5:52 pm 17:52 Mostly Cloudy 47 8.3 26 -3.3 44 44 Calm 30.34 1027 10 16 0.00 0.00
6:52 pm 18:52 Mostly Cloudy 45 7.2 27 -2.8 49 49 NNE 7 11 30.34 1028 10 16 0.00 0.00
7:52 pm 19:52 Mostly Cloudy 43 6.1 26 -3.3 51 51 Calm 30.36 1028 10 16 0.00 0.00
8:52 pm 20:52 Mostly Cloudy 41 5 28 -2.2 60 60 NNE 6 9 30.38 1029 10 16 0.00 0.00
9:52 pm 21:52 Mostly Cloudy 39 3.9 29 -1.7 67 67 W 3 6 30.39 1029 10 16 0.00 0.00
10:52 pm 22:52 Partly Cloudy 36 2.2 30 -1.1 79 79 N 6 9 30.40 1030 10 16 0.00 0.00
11:52 pm 23:52 Clear 34 1.1 30 -1.1 85 85 NW 5 7 30.42 1030 10 16 0.00 0.00

Powered by AerisWeather